[[{"header":{"parameterUnit":"m.s-1","parameterCategory":1,"la1":30.2991,"la2":30.254,"lo1":-89.0895,"lo2":-89.0444,"dy":0.0017,"dx":0.0017,"nx":28,"ny":28,"refTime":"2024-02-25T03:00:00:Z","depth":0,"parameterNumber":2,"parameterNumberName":"U-component_of_WINDS"},"data":[0,0,0,0,0,0,0,0,0,0,0,0,0,0,0,0,0,0,0,0,0,0,0,0,0,0,0,0,0,0,0,0,0,0,0,0,0,0,0,0,0,0,0,0,0,0,0,0,0,0,0,0,0,0,0,0,0,0,0.5704,0.5705,0,0.5736,0.5736,0.5737,0.5705,0.5703,0.5702,0.5701,0.5737,0.574,0.5742,0,0,0,0,0,0,0,0,0,0,0,0,0,0.5621,0.5623,0.5704,0.5705,0.5705,0.5736,0.5737,0.5737,0.5705,0.5703,0.5702,0.57,0.5737,0.5739,0.5742,0,0,0,0,0,0,0,0,0,0,0,0,0,0.5655,0.5623,0.5704,0.5693,0.5692,0.5736,0.5737,0.5737,0.5705,0.5703,0.5701,0.57,0.5736,0.5739,0.5742,0.58,0,0,0.5752,0.5754,0,0,0,0,0,0,0,0,0.5654,0.5659,0.5694,0.5694,0.5693,0.5714,0.572,0.5758,0.5706,0.57,0.5701,0.5699,0.5732,0.5735,0.5745,0.5802,0.5804,0.5752,0.5754,0.5756,0.5757,0,0,0,0,0,0,0,0.5651,0.5657,0.5717,0.5695,0.5694,0.5688,0.569,0.5728,0.5726,0.5701,0.5698,0.5702,0.5731,0.5742,0.5746,0.5804,0.5752,0.5755,0.5757,0.5759,0.5914,0.5916,0,0,0,0,0,0,0.5649,0.5655,0.5716,0.5718,0.5668,0.5691,0.5694,0.5709,0.5726,0.5726,0.5704,0.5701,0.5738,0.5742,0.5747,0.5819,0.5756,0.5759,0.5761,0.5911,0.5914,0.5916,0,0,0,0,0,0,0.5648,0.5655,0.5715,0.5686,0.5693,0.5694,0.5712,0.5711,0.5722,0.5728,0.5728,0.5715,0.5736,0.5743,0.5788,0.5819,0.576,0.5763,0.5909,0.5912,0.5915,0.5961,0,0,0,0,0,0,0.5645,0.5655,0.5676,0.5687,0.5695,0.5754,0.5714,0.5713,0.5728,0.5724,0.5739,0.574,0.5735,0.5783,0.5791,0.5823,0.5766,0.5906,0.591,0.5914,0.5956,0.5965,0.5973,0,0,0,0,0,0.5643,0.5687,0.5677,0.5684,0.5721,0.5755,0.576,0.5753,0.573,0.5752,0.5756,0.5739,0.5814,0.5788,0.5797,0.583,0.5904,0.5909,0.5914,0.5953,0.5963,0.5972,0,0,0,0,0,0,0.5681,0.5689,0.5677,0.5726,0.574,0.575,0.5777,0.5764,0.5786,0.5781,0.5772,0.5776,0.5825,0.5831,0.5802,0.5888,0.5856,0.5863,0.5882,0.5893,0.59,0.5899,0.5768,0,0,0,0,0,0.5695,0.5721,0.5727,0.577,0.5777,0.5776,0.5791,0.5784,0.5799,0.5805,0.5812,0.5829,0.5856,0.5874,0.59,0.5957,0.5961,0.5984,0.5992,0.5999,0.6005,0.6039,0.605,0.5932,0.5932,0.5932,0,0,0.5725,0.5732,0.5749,0.5778,0.5788,0.5817,0.5781,0.5813,0.5836,0.581,0.5854,0.586,0.5878,0.593,0.5953,0.5937,0.6039,0.6005,0.601,0.6013,0.6045,0.6056,0.6066,0.5936,0.5935,0.5935,0,0,0.5794,0.5801,0.5839,0.585,0.5865,0.5864,0.5873,0.5885,0.5888,0.5931,0.5914,0.5941,0.5987,0.6001,0.6015,0.6091,0.6077,0.6099,0.6142,0.6175,0.6185,0.6193,0.6223,0.6233,0.6106,0.6106,0.6106,0,0.583,0.5871,0.586,0.5894,0.5909,0.5886,0.5926,0.5937,0.596,0.5972,0.5953,0.6012,0.6022,0.6079,0.6098,0.6108,0.6121,0.6098,0.6184,0.6192,0.62,0.6228,0.6239,0.6109,0.6108,0.6108,0.6108,0,0.5916,0.5945,0.5974,0.5997,0.6014,0.605,0.6047,0.6066,0.6058,0.606,0.6106,0.6117,0.6145,0.6158,0.615,0.6214,0.6204,0.6185,0.6152,0.6214,0.6241,0.6251,0.6113,0.6112,0.6111,0.611,0,0,0.6011,0.6027,0.6038,0.6049,0.6065,0.6089,0.6125,0.6152,0.617,0.6187,0.6219,0.626,0.6242,0.6257,0.6251,0.628,0.6343,0.6257,0.6258,0.6275,0.6418,0.6434,0.6447,0.6333,0.6335,0.6337,0.6417,0,0.6083,0.6144,0.6136,0.6197,0.6226,0.6205,0.6237,0.6251,0.6254,0.628,0.6284,0.6314,0.6287,0.6297,0.6324,0.633,0.6372,0.6323,0.6366,0.6368,0.6364,0.646,0.6477,0.6552,0.6427,0.6429,0.643,0,0.6175,0.6195,0.6258,0.6271,0.6283,0.6312,0.6337,0.6361,0.6378,0.6378,0.6396,0.6385,0.6424,0.6389,0.6445,0.6412,0.6429,0.6434,0.6437,0.6443,0.6404,0.6471,0.6576,0.6588,0.6446,0.6445,0.6444,0,0.6241,0.6284,0.6328,0.6337,0.6353,0.6375,0.6382,0.6397,0.6414,0.6437,0.6448,0.6475,0.6491,0.6513,0.6511,0.6485,0.6568,0.6532,0.6572,0.6572,0.6592,0.6591,0.6704,0.6599,0.6599,0.6598,0.6598,0,0.6324,0.6364,0.6358,0.6385,0.6431,0.6422,0.6467,0.6473,0.6486,0.6516,0.6499,0.6528,0.6522,0.6551,0.655,0.6598,0.6604,0.6608,0.6607,0.6611,0.6611,0.6623,0.6619,0.6601,0.6601,0.66,0.66,0,0.6407,0.6404,0.6451,0.6462,0.6466,0.6499,0.6509,0.6536,0.6537,0.6575,0.6584,0.6587,0.6621,0.662,0.6659,0.6658,0.6718,0.671,0.6712,0.6711,0.6752,0.6749,0.6879,0.6896,0.6777,0.6778,0.6779,0,0.6461,0.6491,0.6505,0.6523,0.6533,0.6562,0.6579,0.6572,0.6591,0.6614,0.6639,0.667,0.6696,0.6751,0.6758,0.6788,0.6783,0.6826,0.6788,0.6791,0.6787,0.6786,0.6791,0.6835,0.6836,0.6837,0.6838,0,0.6558,0.6555,0.658,0.6606,0.6627,0.6647,0.6665,0.6681,0.6676,0.6699,0.6733,0.6752,0.6792,0.6825,0.6854,0.6864,0.6852,0.685,0.6861,0.6866,0.6867,0.687,0.6735,0.6847,0.6846,0.6846,0.6845,0.6845,0.663,0.6657,0.6672,0.6701,0.6713,0.6731,0.6758,0.6762,0.679,0.6821,0.6815,0.6854,0.6872,0.6909,0.6922,0.6954,0.6939,0.6955,0.6959,0.6964,0.697,0.686,0.6959,0.6959,0.6958,0.6958,0.6958,0,0.6729,0.6737,0.6764,0.679,0.6814,0.6797,0.6817,0.6838,0.6872,0.6889,0.6914,0.6955,0.6987,0.6997,0.7028,0.7052,0.7047,0.7061,0.7061,0.7064,0.698,0.6968,0.7065,0.7065,0.7065,0.7065,0.7065,0.7065,0.6783,0.6829,0.6828,0.6881,0.6889,0.6926,0.6939,0.6956,0.697,0.7015,0.7042,0.7047,0.7062,0.7095,0.7125,0.7127,0.7141,0.7158,0.7158,0.708,0.7069,0.7059,0.7049,0.716,0.716,0.724,0.7241,0.7241]},{"header":{"parameterUnit":"m.s-1","parameterCategory":1,"la1":30.2991,"la2":30.254,"lo1":-89.0895,"lo2":-89.0444,"dy":0.0017,"dx":0.0017,"nx":28,"ny":28,"refTime":"2024-02-25T03:00:00:Z","depth":0,"parameterNumber":3,"parameterNumberName":"V-component_of_WINDS"},"data":[0,0,0,0,0,0,0,0,0,0,0,0,0,0,0,0,0,0,0,0,0,0,0,0,0,0,0,0,0,0,0,0,0,0,0,0,0,0,0,0,0,0,0,0,0,0,0,0,0,0,0,0,0,0,0,0,0,0,-2.0304,-2.0304,0,-2.0308,-2.0308,-2.0308,-2.0304,-2.0304,-2.0304,-2.0304,-2.0307,-2.0307,-2.0308,0,0,0,0,0,0,0,0,0,0,0,0,0,-2.0293,-2.0293,-2.0304,-2.0304,-2.0304,-2.0308,-2.0308,-2.0308,-2.0304,-2.0304,-2.0304,-2.0304,-2.0307,-2.0307,-2.0308,0,0,0,0,0,0,0,0,0,0,0,0,0,-2.0297,-2.0293,-2.0304,-2.0303,-2.0303,-2.0308,-2.0308,-2.0308,-2.0304,-2.0304,-2.0304,-2.0304,-2.0307,-2.0307,-2.0308,-2.0314,0,0,-2.0309,-2.0309,0,0,0,0,0,0,0,0,-2.0297,-2.0298,-2.0303,-2.0303,-2.0303,-2.0305,-2.0305,-2.031,-2.0304,-2.0304,-2.0304,-2.0304,-2.0307,-2.0307,-2.0308,-2.0314,-2.0314,-2.0309,-2.0309,-2.0309,-2.0309,0,0,0,0,0,0,0,-2.0297,-2.0298,-2.0305,-2.0303,-2.0303,-2.0302,-2.0302,-2.0306,-2.0306,-2.0304,-2.0303,-2.0304,-2.0307,-2.0308,-2.0308,-2.0314,-2.0309,-2.0309,-2.0309,-2.0309,-2.0326,-2.0326,0,0,0,0,0,0,-2.0297,-2.0297,-2.0305,-2.0306,-2.0299,-2.0302,-2.0303,-2.0305,-2.0306,-2.0306,-2.0304,-2.0304,-2.0307,-2.0308,-2.0308,-2.0316,-2.0309,-2.0309,-2.031,-2.0325,-2.0326,-2.0326,0,0,0,0,0,0,-2.0296,-2.0297,-2.0305,-2.0301,-2.0302,-2.0303,-2.0305,-2.0305,-2.0306,-2.0307,-2.0307,-2.0305,-2.0307,-2.0308,-2.0313,-2.0316,-2.031,-2.031,-2.0325,-2.0325,-2.0326,-2.033,0,0,0,0,0,0,-2.0296,-2.0297,-2.03,-2.0301,-2.0302,-2.0309,-2.0305,-2.0305,-2.0307,-2.0306,-2.0308,-2.0308,-2.0307,-2.0312,-2.0313,-2.0316,-2.031,-2.0325,-2.0325,-2.0326,-2.033,-2.0331,-2.0332,0,0,0,0,0,-2.0296,-2.0301,-2.03,-2.0301,-2.0306,-2.031,-2.031,-2.0309,-2.0307,-2.0309,-2.031,-2.0308,-2.0315,-2.0313,-2.0314,-2.0317,-2.0325,-2.0325,-2.0326,-2.033,-2.0331,-2.0332,0,0,0,0,0,0,-2.0299,-2.0301,-2.03,-2.0306,-2.0308,-2.0309,-2.0312,-2.0311,-2.0313,-2.0312,-2.0311,-2.0312,-2.0317,-2.0317,-2.0314,-2.0323,-2.032,-2.032,-2.0322,-2.0323,-2.0324,-2.0324,-2.031,0,0,0,0,0,-2.0301,-2.0304,-2.0305,-2.031,-2.0311,-2.0312,-2.0313,-2.0313,-2.0314,-2.0315,-2.0316,-2.0317,-2.032,-2.0322,-2.0324,-2.033,-2.033,-2.0333,-2.0334,-2.0335,-2.0335,-2.0338,-2.0339,-2.0328,-2.0328,-2.0328,0,0,-2.0304,-2.0305,-2.0307,-2.0311,-2.0313,-2.0316,-2.0312,-2.0316,-2.0318,-2.0316,-2.032,-2.0321,-2.0322,-2.0328,-2.033,-2.0328,-2.0338,-2.0335,-2.0336,-2.0336,-2.0339,-2.034,-2.0341,-2.0328,-2.0328,-2.0328,0,0,-2.0311,-2.0313,-2.0317,-2.0318,-2.032,-2.0321,-2.0322,-2.0323,-2.0324,-2.0328,-2.0326,-2.0329,-2.0334,-2.0335,-2.0336,-2.0344,-2.0342,-2.0345,-2.0349,-2.0352,-2.0353,-2.0354,-2.0356,-2.0357,-2.0346,-2.0346,-2.0346,0,-2.0314,-2.0319,-2.0319,-2.0323,-2.0325,-2.0323,-2.0327,-2.0328,-2.0331,-2.0332,-2.033,-2.0336,-2.0337,-2.0343,-2.0345,-2.0346,-2.0347,-2.0345,-2.0353,-2.0354,-2.0355,-2.0357,-2.0358,-2.0346,-2.0346,-2.0346,-2.0346,0,-2.0323,-2.0327,-2.033,-2.0333,-2.0335,-2.0339,-2.0339,-2.0341,-2.0341,-2.0341,-2.0346,-2.0347,-2.035,-2.0351,-2.035,-2.0356,-2.0355,-2.0353,-2.035,-2.0356,-2.0358,-2.0359,-2.0347,-2.0346,-2.0346,-2.0346,0,0,-2.0332,-2.0335,-2.0336,-2.0338,-2.034,-2.0343,-2.0347,-2.035,-2.0351,-2.0353,-2.0356,-2.0361,-2.0359,-2.036,-2.036,-2.0363,-2.0368,-2.036,-2.036,-2.0361,-2.0375,-2.0376,-2.0377,-2.0368,-2.0368,-2.0368,-2.0375,0,-2.0339,-2.0346,-2.0346,-2.0352,-2.0355,-2.0354,-2.0357,-2.0359,-2.036,-2.0362,-2.0363,-2.0366,-2.0363,-2.0364,-2.0367,-2.0367,-2.0371,-2.0367,-2.037,-2.037,-2.0369,-2.0378,-2.0379,-2.0386,-2.0376,-2.0376,-2.0376,0,-2.0348,-2.035,-2.0357,-2.0359,-2.036,-2.0363,-2.0366,-2.0369,-2.0371,-2.0371,-2.0373,-2.0372,-2.0376,-2.0373,-2.0378,-2.0375,-2.0376,-2.0377,-2.0377,-2.0377,-2.0373,-2.0378,-2.0388,-2.0389,-2.0377,-2.0377,-2.0377,0,-2.0353,-2.0358,-2.0363,-2.0364,-2.0367,-2.0369,-2.037,-2.0372,-2.0374,-2.0376,-2.0377,-2.038,-2.0381,-2.0383,-2.0383,-2.0381,-2.0388,-2.0385,-2.0388,-2.0388,-2.0389,-2.0389,-2.0399,-2.0391,-2.0391,-2.0391,-2.0391,0,-2.036,-2.0364,-2.0365,-2.0368,-2.0373,-2.0373,-2.0377,-2.0378,-2.038,-2.0383,-2.0382,-2.0384,-2.0384,-2.0387,-2.0387,-2.0391,-2.0391,-2.0391,-2.0391,-2.0391,-2.0391,-2.0392,-2.0391,-2.0391,-2.0391,-2.0391,-2.0391,0,-2.0367,-2.0368,-2.0373,-2.0375,-2.0375,-2.0379,-2.038,-2.0383,-2.0384,-2.0387,-2.0388,-2.0389,-2.0392,-2.0392,-2.0396,-2.0396,-2.0401,-2.04,-2.04,-2.04,-2.0403,-2.0402,-2.0413,-2.0414,-2.0406,-2.0406,-2.0406,0,-2.0371,-2.0374,-2.0377,-2.0379,-2.038,-2.0383,-2.0385,-2.0386,-2.0388,-2.039,-2.0392,-2.0396,-2.0398,-2.0403,-2.0404,-2.0406,-2.0406,-2.0409,-2.0406,-2.0406,-2.0405,-2.0405,-2.0405,-2.041,-2.041,-2.041,-2.041,0,-2.0379,-2.0379,-2.0382,-2.0385,-2.0387,-2.039,-2.0392,-2.0394,-2.0394,-2.0397,-2.04,-2.0402,-2.0405,-2.0408,-2.0411,-2.0412,-2.0411,-2.0411,-2.0412,-2.0412,-2.0411,-2.0411,-2.0401,-2.0411,-2.0411,-2.041,-2.041,-2.041,-2.0384,-2.0387,-2.0389,-2.0392,-2.0394,-2.0396,-2.0399,-2.04,-2.0403,-2.0406,-2.0406,-2.0409,-2.0411,-2.0415,-2.0416,-2.0419,-2.0418,-2.0419,-2.0419,-2.0419,-2.0419,-2.0411,-2.0419,-2.0419,-2.0419,-2.0419,-2.0419,0,-2.0391,-2.0393,-2.0396,-2.0399,-2.0402,-2.0401,-2.0403,-2.0405,-2.0409,-2.0411,-2.0413,-2.0417,-2.042,-2.0421,-2.0424,-2.0426,-2.0425,-2.0426,-2.0426,-2.0426,-2.042,-2.0419,-2.0427,-2.0427,-2.0427,-2.0427,-2.0427,-2.0427,-2.0395,-2.0399,-2.04,-2.0405,-2.0407,-2.0411,-2.0412,-2.0414,-2.0416,-2.042,-2.0423,-2.0423,-2.0425,-2.0428,-2.0431,-2.0431,-2.0432,-2.0433,-2.0433,-2.0427,-2.0427,-2.0426,-2.0425,-2.0433,-2.0433,-2.0439,-2.0439,-2.0439]}]]